Weather in Yalova

Turkey     40°39′23″N   29°17′01″E
temp.,
°C
wind,
m/s
gust,
m/s
humid.,
%
clouds,
%
prec.,
mm/h
press.,
hPa
HPBL,
m
18 april, sun
sun1800:00+11ne348839 0.1 1012105
03:00+10ne2291100 0.1 1014189
06:00+11nne339139 0.1 1013196
09:00+12nne338847 0.2 101481
12:00+13nnw4483100 0.0 101366
15:00+13wnw4488100 0.4 101472
18:00+13n2289100 0.3 101542
21:00+14e2283100 0.3 101512
19 april, mon
mon1900:00+14ene1185100 0.1 101611
03:00+14se3395100 2.9 101429
06:00+14ese3394100 4.0 101328
09:00+14e3490100 4.6 101238
12:00+15nnw1186100 0.4 101071
15:00+14nne2487100 1.7 1009121
18:00+15wsw81375100 0.5 1009256
21:00+14s3382100 1.8 100844
20 april, tue
tue2000:00+13wnw23840 0.0 100828
03:00+11w579538 0.6 1008231
06:00+11w578939 1.3 1009349
09:00+11wnw779095 1.9 1011457
12:00+11wnw898341 0.1 1014501
15:00+11wnw68795 0.3 1014358
18:00+11w457995 0.1 1015173
21:00+11nnw117655 0.1 101772
21 april, wed
wed2100:00+11ssw11775 0.0 101747
03:00+11s11740 0.0 101849
06:00+11se22740 0.0 101871
09:00+12ese22753 0.0 101970
12:00+12nw22735 0.1 1020143
15:00+13nw33715 0.1 1019154
18:00+14w12695 0.0 101961
21:00+13s116912 0.0 102011
22 april, thu
thu2200:00+13s11686 0.0 102010
03:00+13sse116975 0.0 102111
06:00+12sse1169100 0.0 102113
09:00+13e1170100 0.0 102231
12:00+13ene016521 0.0 1022108
15:00+15w21605 0.0 1022148
18:00+16n346659 0.0 102161
21:00+14ene33746 0.0 102127